Change the Weather History Date:

Thursday, July 11, 2013

  Actual Average Record
Temperature  
Mean Temperature 79 °F -  
Max Temperature 95 °F 91 °F 111 °F (1954)
Min Temperature 63 °F 60 °F 48 °F (1951)
Cooling Degree Days 14    
Growing Degree Days 29 (Base 50)    
Moisture  
Dew Point 61 °F    
Average Humidity 56    
Maximum Humidity 92    
Minimum Humidity 25    
Precipitation  
Precipitation 0.03 in - - ()
Sea Level Pressure  
Sea Level Pressure 30.01 in    
Wind  
Wind Speed 8 mph (SSE)    
Max Wind Speed 20 mph    
Max Gust Speed 26 mph    
Visibility 10 miles    
Events Thunderstorm    
Averages and records for this station are not official NWS values.
T = Trace of Precipitation, MM = Missing Value Source: NWS Daily Summary

Daily Weather History Graph

Daily Weather History Graph

Search for Another Location

Airport or City:

Trip Planner

Search our weather history database for the weather conditions in past years. The results will help you decide how hot, cold, wet, or windy it might be!

Date:

Astronomy

Jul. 11, 2013 Rise Set
Actual Time 5:24 AM MDT 8:20 PM MDT
Civil Twilight 4:51 AM MDT 8:53 PM MDT
Nautical Twilight 4:10 AM MDT 9:34 PM MDT
Astronomical Twilight 3:21 AM MDT 10:22 PM MDT
Moon 8:47 AM MDT (7/11) 9:59 PM MDT (7/11)
Length of Visible Light 16h 01m
Length of Day
14h 55m
Waxing Crescent, 11% of the Moon is Illuminated
Jul 11
Waxing Crescent
Jul 15
First Quarter
Jul 22
Full
Jul 29
Last Quarter
Aug 6
New

Hourly Weather History & Observations

Time (MDT) Temp. Heat Index Dew Point Humidity Pressure Visibility Wind Dir Wind Speed Gust Speed Precip Events Conditions
12:15 AM 69.4 °F - 63.3 °F 81% 30.11 in 10.0 mi East 4.6 mph - N/A   Clear
12:35 AM 69.6 °F - 63.1 °F 80% 30.11 in 10.0 mi East 6.9 mph - N/A   Clear
12:55 AM 69.4 °F - 63.3 °F 81% 30.11 in 10.0 mi ESE 4.6 mph - N/A   Clear
1:15 AM 68.5 °F - 63.3 °F 83% 30.11 in 10.0 mi East 5.8 mph - N/A   Scattered Clouds
1:35 AM 69.1 °F - 63.5 °F 82% 30.12 in 10.0 mi East 9.2 mph - N/A   Mostly Cloudy
1:55 AM 68.9 °F - 63.1 °F 82% 30.11 in 10.0 mi East 4.6 mph - N/A   Scattered Clouds
2:15 AM 68.0 °F - 63.0 °F 84% 30.11 in 10.0 mi Calm Calm - N/A   Clear
2:35 AM 66.4 °F - 62.8 °F 88% 30.10 in 10.0 mi SSW 3.5 mph - N/A   Clear
2:55 AM 67.1 °F - 62.8 °F 86% 30.10 in 10.0 mi Calm Calm - N/A   Clear
3:15 AM 65.8 °F - 62.4 °F 89% 30.09 in 10.0 mi Calm Calm - N/A   Clear
3:35 AM 64.4 °F - 61.9 °F 92% 30.10 in 7.0 mi Calm Calm - N/A   Clear
3:55 AM 64.6 °F - 61.7 °F 90% 30.10 in 10.0 mi Calm Calm - N/A   Clear
4:15 AM 64.6 °F - 61.5 °F 90% 30.08 in 10.0 mi South 6.9 mph - N/A   Clear
4:35 AM 63.5 °F - 61.0 °F 91% 30.09 in 7.0 mi SE 3.5 mph - N/A   Clear
4:55 AM 64.9 °F - 62.1 °F 90% 30.09 in 10.0 mi South 10.4 mph - N/A   Clear
5:15 AM 66.0 °F - 62.6 °F 89% 30.09 in 10.0 mi South 10.4 mph 16.1 mph N/A   Clear
5:35 AM 65.8 °F - 62.6 °F 89% 30.09 in 10.0 mi South 8.1 mph - N/A   Clear
5:55 AM 65.3 °F - 62.6 °F 91% 30.09 in 7.0 mi South 4.6 mph - N/A   Clear
6:15 AM 65.7 °F - 62.8 °F 90% 30.09 in 7.0 mi South 5.8 mph - N/A   Clear
6:35 AM 67.1 °F - 63.7 °F 89% 30.08 in 10.0 mi South 6.9 mph - N/A   Clear
6:55 AM 68.5 °F - 64.2 °F 86% 30.08 in 10.0 mi South 5.8 mph - N/A   Clear
7:15 AM 69.6 °F - 64.0 °F 82% 30.08 in 10.0 mi South 4.6 mph - N/A   Clear
7:35 AM 71.6 °F - 63.9 °F 76% 30.08 in 10.0 mi South 6.9 mph - N/A   Clear
7:55 AM 73.4 °F - 62.8 °F 69% 30.08 in 10.0 mi SSW 5.8 mph - N/A   Clear
8:15 AM 74.5 °F - 62.1 °F 65% 30.07 in 10.0 mi SW 5.8 mph - N/A   Clear
8:35 AM 76.3 °F - 60.8 °F 59% 30.07 in 10.0 mi SSW 6.9 mph - N/A   Clear
8:55 AM 78.4 °F - 59.9 °F 53% 30.06 in 10.0 mi SSW 8.1 mph - N/A   Clear
9:15 AM 80.1 °F 80.8 °F 59.5 °F 49% 30.06 in 10.0 mi SSW 11.5 mph - N/A   Clear
9:35 AM 81.0 °F 81.6 °F 60.1 °F 49% 30.05 in 10.0 mi SSE 15.0 mph - N/A   Clear
9:55 AM 81.5 °F 82.0 °F 60.3 °F 48% 30.05 in 10.0 mi South 13.8 mph 17.3 mph N/A   Clear
10:15 AM 82.6 °F 82.6 °F 59.5 °F 45% 30.04 in 10.0 mi South 12.7 mph - N/A   Clear
10:35 AM 84.2 °F 84.0 °F 59.4 °F 43% 30.04 in 10.0 mi South 13.8 mph 19.6 mph N/A   Clear
10:55 AM 85.8 °F 85.2 °F 58.6 °F 40% 30.04 in 10.0 mi South 16.1 mph 19.6 mph N/A   Clear
11:15 AM 86.2 °F 85.4 °F 58.8 °F 39% 30.04 in 10.0 mi SSE 13.8 mph 18.4 mph N/A   Clear
11:35 AM 86.5 °F 85.9 °F 59.0 °F 39% 30.03 in 10.0 mi South 15.0 mph - 0.03 in Thunderstorm Thunderstorm
11:55 AM 87.8 °F 86.7 °F 58.1 °F 36% 30.03 in 10.0 mi South 15.0 mph 23.0 mph 0.03 in   Clear
12:15 PM 88.5 °F 87.5 °F 58.3 °F 36% 30.02 in 10.0 mi SSE 16.1 mph 20.7 mph N/A   Clear
12:35 PM 89.1 °F 88.0 °F 58.1 °F 35% 30.02 in 10.0 mi SSE 13.8 mph 20.7 mph N/A   Clear
12:55 PM 90.3 °F 88.8 °F 57.0 °F 32% 30.01 in 10.0 mi South 17.3 mph 23.0 mph N/A   Clear
1:15 PM 91.2 °F 89.9 °F 57.7 °F 32% 30.00 in 10.0 mi South 16.1 mph 26.5 mph N/A   Clear
1:35 PM 91.9 °F 91.2 °F 58.6 °F 33% 30.00 in 10.0 mi SSE 17.3 mph 23.0 mph N/A   Clear
1:55 PM 92.7 °F 91.2 °F 56.7 °F 30% 29.99 in 10.0 mi SSE 18.4 mph 25.3 mph N/A   Clear
2:15 PM 94.1 °F 92.5 °F 56.5 °F 28% 29.98 in 10.0 mi South 12.7 mph 24.2 mph N/A   Clear
2:35 PM 94.1 °F 92.5 °F 56.3 °F 28% 29.98 in 10.0 mi South 13.8 mph 24.2 mph N/A   Clear
2:55 PM 94.3 °F 92.4 °F 55.6 °F 27% 29.97 in 10.0 mi South 15.0 mph 25.3 mph N/A   Clear
3:15 PM 94.8 °F 93.1 °F 55.9 °F 27% 29.97 in 10.0 mi SSE 18.4 mph 23.0 mph N/A   Clear
3:35 PM 95.2 °F 93.0 °F 54.7 °F 25% 29.96 in 10.0 mi SSE 16.1 mph 25.3 mph N/A   Clear
3:55 PM 95.0 °F 93.0 °F 55.2 °F 26% 29.95 in 10.0 mi South 18.4 mph 23.0 mph N/A   Clear
4:15 PM 94.6 °F 93.9 °F 58.5 °F 30% 29.95 in 10.0 mi South 17.3 mph 23.0 mph N/A   Clear
4:35 PM 94.3 °F 93.4 °F 58.1 °F 30% 29.94 in 10.0 mi SSE 15.0 mph 23.0 mph N/A   Clear
4:55 PM 93.4 °F 92.5 °F 58.3 °F 31% 29.93 in 10.0 mi SSE 16.1 mph 23.0 mph N/A   Clear
5:15 PM 93.6 °F 92.7 °F 58.3 °F 31% 29.93 in 10.0 mi SE 16.1 mph 23.0 mph N/A   Clear
5:35 PM 93.2 °F 92.2 °F 58.5 °F 31% 29.92 in 10.0 mi SE 15.0 mph 19.6 mph N/A   Clear
5:55 PM 92.5 °F 91.6 °F 58.6 °F 32% 29.91 in 10.0 mi SE 19.6 mph 24.2 mph N/A   Clear
6:15 PM 92.3 °F 91.3 °F 58.6 °F 32% 29.91 in 10.0 mi SE 12.7 mph - N/A   Clear
6:35 PM 91.6 °F 90.7 °F 58.8 °F 33% 29.91 in 10.0 mi SE 12.7 mph 20.7 mph N/A   Clear
6:55 PM 90.7 °F 90.1 °F 59.2 °F 35% 29.89 in 10.0 mi SE 13.8 mph 18.4 mph N/A   Clear
7:15 PM 89.6 °F 89.2 °F 60.1 °F 37% 29.89 in 10.0 mi SE 10.4 mph - N/A   Clear
7:35 PM 88.0 °F 87.9 °F 60.8 °F 40% 29.89 in 10.0 mi SE 10.4 mph - N/A   Clear
7:55 PM 86.4 °F 86.3 °F 60.8 °F 42% 29.89 in 10.0 mi SE 10.4 mph - N/A   Clear
8:15 PM 84.2 °F 85.0 °F 62.8 °F 48% 29.90 in 10.0 mi ESE 9.2 mph - N/A   Clear
8:35 PM 82.8 °F 84.0 °F 63.7 °F 52% 29.91 in 10.0 mi SE 10.4 mph - N/A   Clear
8:55 PM 81.3 °F 82.7 °F 63.7 °F 55% 29.91 in 10.0 mi ESE 8.1 mph - N/A   Clear
9:15 PM 80.2 °F 81.8 °F 63.5 °F 57% 29.92 in 10.0 mi SE 9.2 mph - N/A   Clear
9:35 PM 79.7 °F - 62.6 °F 56% 29.92 in 10.0 mi SE 11.5 mph - N/A   Clear
9:55 PM 80.1 °F 81.2 °F 62.1 °F 54% 29.93 in 10.0 mi SE 12.7 mph - N/A   Clear
10:15 PM 80.1 °F 81.2 °F 61.9 °F 54% 29.93 in 10.0 mi SSE 12.7 mph 18.4 mph N/A   Clear
10:35 PM 79.7 °F - 62.2 °F 55% 29.93 in 10.0 mi SE 16.1 mph 23.0 mph N/A   Clear
10:55 PM 78.8 °F - 62.6 °F 57% 29.93 in 10.0 mi SSE 11.5 mph 18.4 mph N/A   Clear
11:15 PM 77.5 °F - 63.7 °F 62% 29.93 in 10.0 mi SSE 12.7 mph - N/A   Clear
11:35 PM 76.8 °F - 64.6 °F 66% 29.94 in 10.0 mi SE 8.1 mph - N/A   Clear
11:55 PM 75.7 °F - 65.3 °F 70% 29.94 in 10.0 mi SSE 8.1 mph - N/A   Clear